Location: Bullenkuhlen
(53.7689°N, 9.7495°E)
Time: 01:44:37
(UTC+00:00)

Cosmos 1805 Rocket - Pass Details

Date: 09 April 2020
Orbit: 605 x 631 km, 82.5° (Epoch: 06 June)

Event Time Altitude Azimuth Distance (km) Brightness Sun altitude
Rises 22:34:41 0° 345° (NNW) 2,935 8.3 -27.4°
Reaches altitude 10° 22:36:58 10° 340° (NNW) 2,024 7.2 -27.5°
Enters shadow 22:40:33 45° 299° (WNW) 869 4.5 -27.6°
